Wind_Speed
11 10 11 12 12 11 12 15 14 13 13 13 13 13 14 15 17 17 18 19 20 20 21 21 22 24 25 26 28 29 29 29 30 30 30 31 31 31 31 31 31 32
11 11 12 12 11 12 15 15 14 13 13 13 13 14 15 16 16 17 18 19 20 20 21 22 24 25 27 27 28 28 28 29 29 30 31 31 31 31 31 31 31 32
12 13 12 11 12 14 16 15 14 14 13 13 13 14 15 16 16 17 18 19 19 20 21 23 25 27 27 27 27 28 28 29 29 30 30 31 31 31 31 32 32 32
13 13 12 12 13 15 15 14 14 13 13 13 14 14 15 15 16 16 17 18 20 21 22 24 26 27 27 27 27 27 28 29 29 30 30 30 31 31 32 32 32 33
12 13 12 12 14 15 15 14 14 13 13 13 14 15 15 15 15 16 17 18 21 23 24 25 26 27 27 27 27 27 28 28 29 29 30 31 31 32 32 33 33 33
12 12 12 13 14 15 14 14 13 13 13 14 14 15 15 15 16 17 18 19 21 23 25 25 26 26 26 26 27 27 27 28 29 29 30 31 31 32 33 33 34 34
12 12 12 14 15 14 14 13 12 13 14 14 14 15 15 16 16 18 19 20 21 23 24 25 26 26 26 26 26 27 27 28 29 30 31 31 32 33 33 33 33 33
12 12 13 14 14 14 13 12 12 13 14 14 14 15 16 16 17 19 21 21 22 22 23 25 26 26 26 25 26 27 27 28 29 30 31 32 33 33 33 34 33 33
12 13 14 14 13 12 12 12 13 14 14 14 15 15 17 17 19 21 22 22 23 23 23 24 25 26 26 25 26 26 27 28 29 30 31 32 33 33 34 33 33 33
12 12 13 13 12 12 13 13 14 15 15 15 15 16 18 19 20 22 23 24 24 23 22 23 24 25 26 26 26 26 27 28 29 30 31 32 33 33 33 33 33 33
11 11 12 13 13 13 14 14 15 15 15 15 16 17 19 20 22 24 25 25 25 24 23 23 24 25 25 26 26 26 27 28 29 30 31 32 32 32 32 32 33 33
11 12 13 13 14 14 15 15 15 16 15 16 17 19 20 23 24 25 26 26 26 25 24 23 24 25 26 26 26 26 27 28 29 31 31 32 32 32 32 32 33 33
11 13 14 14 15 16 16 16 16 17 17 18 20 22 23 25 26 27 27 27 27 26 25 24 24 25 26 27 27 27 27 29 30 31 32 32 32 31 32 32 33 34
13 14 15 16 17 17 17 17 18 19 20 21 23 25 26 27 28 28 28 28 28 27 26 25 25 26 27 27 27 27 28 29 30 32 32 32 31 31 32 33 34 34
16 16 17 18 19 19 18 19 20 21 22 24 26 27 28 29 29 29 29 29 29 28 28 27 26 26 27 28 28 28 28 30 31 32 33 32 31 31 32 33 34 34
17 18 19 19 19 19 20 21 22 23 24 26 27 29 29 30 30 30 30 29 29 29 29 29 28 27 28 28 28 28 29 30 31 32 33 32 31 31 32 33 34 34
18 19 19 19 19 20 22 22 23 24 25 27 28 29 30 30 31 31 30 30 30 31 31 31 29 28 28 28 28 28 29 30 32 32 33 31 31 31 32 33 33 33
21 22 22 21 21 21 21 22 22 24 26 26 27 30 31 31 31 31 31 31 31 32 32 31 29 28 27 27 28 28 29 30 32 32 32 31 31 31 32 33 33 32
22 22 22 21 20 20 20 21 23 24 26 26 27 30 32 32 32 31 31 32 32 32 32 30 28 27 26 27 28 28 29 30 31 31 31 30 30 31 32 32 32 31
20 19 18 19 20 20 20 22 23 25 27 27 29 31 32 32 32 31 31 32 32 32 31 29 27 26 26 27 27 28 29 30 31 30 30 29 30 31 31 31 30 30
19 17 17 18 20 20 21 23 24 26 27 28 30 31 31 31 31 30 31 31 31 31 30 28 26 25 26 27 28 28 29 30 30 29 29 29 30 30 30 30 29 29
16 17 18 19 20 21 22 24 25 26 27 29 30 30 31 30 29 30 31 31 31 30 29 26 25 25 26 27 28 28 29 29 29 28 28 29 29 29 29 28 28 29
17 18 19 20 20 22 23 25 26 27 29 30 31 31 30 29 29 29 30 30 30 29 27 25 24 25 27 28 28 28 28 28 27 27 28 29 29 28 28 28 28 29
21 21 21 21 22 23 25 26 28 29 30 31 32 31 30 29 28 29 29 28 28 27 25 24 24 26 27 28 27 27 27 27 26 27 28 28 28 27 27 27 28 29
24 24 23 23 24 25 27 28 30 31 31 32 32 31 29 28 28 28 28 27 26 25 24 24 25 27 28 27 27 26 26 26 26 27 28 28 27 27 26 27 28 29
26 25 25 25 26 27 29 30 31 32 32 32 32 30 28 27 27 27 26 25 25 24 24 24 26 27 27 26 26 25 25 25 26 27 27 27 27 26 26 27 28 30
Wind_Direction
238 241 253 261 265 266 259 258 263 266 268 271 276 282 286 288 290 293 295 297 297 298 302 307 312 317 320 322 324 325 325 325 325 325 324 323 324 323 323 322 320 319
239 258 265 264 262 259 257 258 260 261 264 270 276 281 285 288 291 293 295 295 296 300 307 312 316 319 321 323 325 325 326 326 326 325 325 325 325 324 323 322 320 319
258 268 266 261 255 252 254 255 256 259 265 272 277 282 286 289 291 292 293 295 299 306 312 316 318 320 322 324 326 327 327 327 326 325 325 325 324 323 322 320 319 317
265 264 260 256 249 248 252 254 257 263 269 275 279 283 286 287 289 290 294 298 304 311 315 317 318 321 324 326 327 327 327 326 325 325 325 325 324 322 320 319 317 316
259 255 252 250 247 249 253 256 261 267 272 277 281 283 284 285 288 292 298 305 311 314 316 318 319 322 326 327 327 327 325 324 324 325 326 325 323 322 320 319 318 318
252 250 246 245 247 249 252 257 262 267 273 279 281 282 284 288 294 299 304 311 315 316 317 319 321 324 326 326 325 325 324 324 324 326 327 325 324 322 321 320 319 318
249 247 244 245 248 249 252 257 263 270 276 280 282 285 290 296 301 303 307 313 317 318 318 319 321 323 324 324 324 324 324 324 325 327 328 326 323 322 321 320 319 319
248 247 247 248 251 253 256 261 268 274 278 281 285 290 295 299 302 304 308 313 317 318 319 319 320 321 321 322 323 323 324 325 326 327 327 325 323 322 321 320 320 320
250 250 250 252 255 257 261 267 271 274 278 283 289 293 296 300 303 306 309 312 314 317 318 318 317 318 319 321 321 322 324 326 326 325 325 324 323 322 321 321 321 321
250 251 252 255 258 261 265 268 270 273 278 284 290 294 298 303 307 308 308 309 311 313 315 315 314 315 317 319 320 321 324 325 325 324 324 323 322 322 321 321 321 321
249 251 254 256 260 262 264 266 268 274 280 286 292 297 303 307 308 308 307 306 306 309 312 312 312 314 316 317 319 320 322 324 324 323 323 322 321 321 321 321 321 322
250 251 254 256 259 260 261 265 270 277 285 291 296 301 305 306 306 306 306 305 304 306 308 309 310 313 315 316 317 318 321 323 323 323 322 321 321 320 320 321 322 322
251 252 254 256 258 260 263 269 275 283 290 295 299 303 304 303 303 303 304 304 304 305 306 308 311 313 314 314 315 317 320 322 322 322 322 321 321 320 321 322 322 322
253 253 256 257 261 265 269 274 280 287 292 296 300 302 301 300 300 301 302 304 304 305 305 307 311 313 314 313 314 316 319 321 322 322 321 320 320 321 321 322 322 322
256 257 259 262 265 268 271 278 285 289 292 296 300 300 299 298 298 300 302 304 305 306 307 308 311 313 313 312 312 315 318 320 321 321 320 320 320 321 322 322 322 322
263 264 265 267 268 271 277 283 287 290 293 295 296 296 295 297 299 301 302 304 307 309 309 309 311 311 311 311 311 313 316 319 319 320 319 319 319 321 322 322 322 322
268 267 266 266 271 277 282 286 288 290 291 292 294 294 294 297 299 301 302 304 307 308 308 310 311 308 308 308 309 313 316 318 319 319 319 319 320 321 321 322 322 323
268 264 262 265 273 279 283 286 289 290 290 292 294 293 294 297 300 301 303 305 306 306 307 311 311 308 307 307 310 313 316 318 318 318 318 319 320 321 322 323 323 323
269 265 263 266 274 279 284 289 291 290 291 292 291 290 293 297 299 301 303 304 304 304 306 310 311 308 307 308 310 314 316 317 318 318 319 319 320 321 322 323 323 323
268 267 266 268 274 279 286 291 291 291 291 291 290 290 293 296 298 301 302 301 301 303 306 310 310 308 307 308 311 314 316 317 317 318 318 319 320 321 322 322 322 324
267 267 270 273 275 279 286 289 289 289 289 289 290 292 294 296 298 299 299 300 301 303 307 309 308 307 307 308 311 314 315 316 316 317 318 318 320 321 321 322 323 325
270 269 273 275 276 281 286 289 289 289 290 290 292 294 295 297 298 297 298 299 300 303 307 308 306 306 306 308 311 314 315 315 316 316 317 318 319 320 321 322 324 327
278 275 275 276 279 284 288 290 291 292 292 293 294 295 297 297 297 296 298 299 300 303 305 304 303 304 305 307 311 314 314 315 316 316 317 318 319 319 320 322 326 329
282 279 279 280 284 287 289 292 293 293 293 295 295 296 297 297 296 296 298 299 301 303 302 299 301 304 305 308 311 313 314 315 316 316 317 317 318 319 321 324 328 331
281 281 282 284 286 289 291 293 293 293 294 295 295 296 297 295 294 295 296 298 301 301 297 295 299 302 304 308 311 313 314 315 315 316 316 317 317 319 322 326 329 331
278 280 282 283 286 289 291 291 291 292 293 293 294 295 294 292 292 292 293 296 299 297 292 293 298 301 304 307 311 312 313 314 315 316 316 316 317 319 324 327 329 331
Height
5818 5819 5821 5822 5822 5822 5823 5824 5823 5823 5823 5822 5822 5823 5823 5823 5822 5822 5821 5820 5820 5819 5818 5817 5815 5813 5811 5808 5806 5804 5802 5800 5798 5796 5794 5792 5790 5788 5786 5784 5782 5780
5817 5818 5819 5820 5820 5820 5821 5822 5822 5822 5821 5821 5821 5821 5821 5821 5820 5819 5819 5818 5818 5817 5816 5814 5812 5810 5808 5805 5803 5801 5799 5797 5795 5793 5791 5789 5787 5785 5783 5781 5779 5777
5815 5816 5817 5818 5818 5819 5820 5820 5820 5820 5820 5820 5820 5819 5819 5819 5818 5818 5817 5816 5815 5814 5813 5811 5809 5807 5805 5803 5801 5798 5797 5795 5793 5791 5789 5787 5785 5783 5781 5779 5777 5775
5813 5814 5815 5816 5816 5817 5817 5818 5818 5818 5818 5818 5818 5818 5817 5817 5816 5816 5815 5814 5813 5811 5810 5808 5806 5804 5802 5800 5798 5796 5794 5792 5791 5788 5787 5785 5783 5781 5779 5777 5775 5772
5811 5812 5813 5814 5814 5815 5815 5816 5816 5816 5816 5816 5816 5816 5815 5815 5814 5814 5813 5812 5810 5808 5807 5805 5803 5801 5799 5797 5796 5794 5792 5790 5788 5786 5784 5782 5780 5778 5776 5774 5772 5770
5809 5810 5811 5812 5813 5813 5814 5814 5815 5815 5814 5814 5814 5814 5813 5813 5812 5811 5810 5809 5807 5806 5804 5802 5800 5798 5797 5795 5793 5792 5790 5788 5786 5784 5782 5780 5778 5776 5774 5772 5770 5768
5807 5808 5809 5810 5811 5812 5812 5813 5813 5812 5812 5812 5812 5812 5811 5811 5810 5809 5808 5807 5805 5803 5801 5799 5797 5796 5795 5793 5791 5789 5788 5785 5783 5781 5780 5778 5776 5774 5772 5770 5768 5765
5805 5806 5808 5809 5810 5810 5810 5810 5810 5810 5810 5810 5810 5810 5809 5808 5807 5806 5805 5804 5803 5801 5799 5797 5795 5794 5793 5791 5789 5787 5785 5783 5781 5779 5777 5775 5773 5771 5769 5767 5765 5763
5804 5805 5806 5807 5808 5808 5808 5808 5808 5808 5808 5808 5808 5808 5807 5805 5804 5803 5802 5801 5800 5798 5796 5795 5793 5792 5790 5789 5787 5785 5783 5781 5779 5777 5775 5773 5771 5769 5767 5765 5763 5760
5803 5804 5805 5805 5806 5806 5806 5806 5806 5806 5806 5806 5806 5805 5804 5802 5801 5800 5799 5798 5797 5796 5794 5793 5792 5790 5788 5787 5785 5783 5781 5779 5777 5775 5773 5771 5769 5767 5764 5762 5760 5758
5801 5802 5803 5803 5803 5804 5804 5804 5804 5804 5804 5804 5803 5802 5801 5799 5798 5797 5796 5795 5794 5793 5792 5791 5790 5788 5786 5784 5782 5781 5779 5777 5775 5773 5771 5769 5767 5764 5762 5760 5758 5756
5800 5800 5800 5801 5801 5801 5801 5802 5801 5801 5801 5801 5800 5799 5798 5797 5796 5795 5794 5793 5792 5791 5790 5789 5787 5785 5783 5782 5780 5778 5776 5775 5773 5770 5768 5766 5764 5762 5760 5758 5756 5754
5797 5798 5798 5798 5799 5799 5799 5799 5799 5799 5799 5798 5797 5797 5795 5794 5793 5792 5791 5790 5789 5788 5787 5786 5784 5782 5781 5779 5778 5776 5774 5772 5770 5768 5766 5764 5762 5760 5758 5756 5754 5751
5795 5795 5796 5796 5796 5797 5797 5797 5796 5796 5796 5795 5795 5794 5793 5792 5791 5790 5789 5787 5786 5785 5784 5783 5782 5780 5779 5777 5775 5774 5772 5770 5768 5766 5764 5762 5760 5758 5756 5753 5751 5748
5793 5793 5793 5794 5794 5794 5794 5794 5794 5794 5793 5792 5792 5791 5790 5789 5788 5787 5785 5784 5783 5782 5781 5780 5779 5778 5776 5775 5773 5771 5769 5767 5765 5763 5762 5760 5758 5756 5754 5751 5748 5746
5790 5791 5791 5791 5791 5792 5792 5791 5791 5791 5790 5790 5789 5788 5787 5786 5785 5783 5782 5781 5780 5779 5778 5777 5777 5775 5774 5772 5770 5769 5767 5765 5763 5761 5759 5758 5756 5754 5751 5749 5746 5743
5788 5788 5788 5788 5789 5789 5789 5789 5789 5788 5788 5787 5786 5785 5784 5783 5781 5780 5779 5778 5777 5776 5775 5775 5774 5772 5771 5769 5768 5766 5764 5762 5760 5759 5757 5755 5753 5751 5749 5746 5743 5741
5785 5786 5786 5786 5787 5787 5787 5786 5786 5786 5785 5784 5783 5782 5781 5779 5778 5777 5776 5775 5775 5773 5772 5772 5771 5769 5768 5766 5765 5763 5761 5760 5758 5756 5755 5753 5751 5749 5746 5744 5741 5738
5782 5783 5784 5784 5784 5784 5784 5784 5783 5782 5781 5781 5780 5779 5777 5776 5775 5774 5773 5773 5772 5770 5770 5769 5768 5766 5765 5764 5762 5761 5759 5757 5756 5754 5752 5751 5748 5746 5744 5741 5739 5736
5779 5780 5781 5782 5782 5782 5782 5781 5780 5779 5778 5778 5777 5775 5774 5773 5772 5771 5770 5769 5769 5768 5767 5766 5765 5763 5762 5761 5760 5758 5757 5755 5753 5752 5750 5748 5746 5744 5741 5739 5736 5734
5776 5777 5778 5779 5779 5779 5779 5778 5777 5776 5775 5774 5773 5772 5771 5770 5769 5768 5767 5766 5765 5765 5764 5763 5762 5760 5760 5759 5757 5756 5754 5753 5751 5750 5748 5746 5743 5741 5739 5737 5734 5731
5774 5774 5775 5775 5776 5776 5775 5775 5774 5773 5772 5771 5770 5769 5768 5767 5766 5765 5764 5763 5762 5761 5761 5760 5759 5758 5757 5756 5755 5753 5752 5750 5749 5747 5745 5743 5741 5739 5737 5734 5732 5729
5771 5771 5772 5772 5773 5773 5772 5771 5770 5769 5768 5767 5766 5765 5764 5763 5762 5761 5761 5760 5759 5758 5758 5757 5756 5755 5755 5753 5752 5750 5749 5748 5746 5744 5743 5741 5738 5736 5734 5732 5729 5727
5768 5768 5769 5769 5769 5769 5768 5767 5767 5766 5765 5764 5763 5762 5761 5760 5759 5758 5757 5757 5756 5755 5755 5754 5753 5753 5752 5751 5749 5748 5746 5745 5743 5742 5740 5738 5736 5734 5732 5729 5727 5724
5764 5765 5765 5766 5765 5765 5764 5764 5763 5762 5761 5760 5759 5758 5757 5756 5756 5755 5754 5754 5753 5752 5752 5751 5751 5750 5749 5748 5746 5745 5743 5742 5741 5739 5737 5735 5733 5731 5729 5727 5724 5722
5761 5762 5762 5762 5762 5761 5761 5760 5759 5758 5757 5756 5755 5754 5754 5753 5753 5752 5751 5751 5750 5750 5749 5749 5748 5747 5746 5745 5744 5742 5741 5739 5738 5736 5734 5733 5731 5729 5726 5724 5722 5719